SCP
0 0 0 -0 -0 -0 -0 -0 -0 -0 -0 -0 -0 -0 -0 -0 -0 -0 -0 -0 -0 -0 -0 0 -0 -0 -0 -0 -0 -0 0 0 0 -0 0 0 0 0 0 0 0 0 0 0 0 0 0
0 0 0 0 -0 -0 -0 -0 -0 -0 -0 -0 -0 -0 -0 -0 -0 -0 -0 -0 -0 -0 -0 0 0 0 -0 0 0 -0 -0 -0 -0 -0 -0 -0 0 0 0 0 0 0 0 0 0 0 0
0 0 0 0 0 -0 -0 -0 -0 -0 -0 -0 -0 -0 -0 -0 -0 -0 -0 0 0 -0 0 0 0 0 0 0 0 0 0 0 0 -0 -0 -0 -0 0 0 0 0 0 0 0 0 0 0
-0 0 0 0 0 0 0 -0 -0 -0 -0 -0 -0 0 -0 -0 -0 -0 0 0 0 0 0 0 0 0 -0 0 0 0 0 0 0 0 0 -0 0 0 0 0 0 0 0 0 0 0 0
-0 -0 0 0 0 0 0 0 0 0 0 0 0 0 0 0 0 0 0 0 0 0 0 0 0 0 -0 0 0 0 0 0 0 0 0 0 0 0 0 0 0 0 0 0 0 0 0
-0 -0 0 0 0 0 0 0 0 0 0 0 0 0 0 0 0 0 0 0 0 0 0 0 0 0 0 0 0 -0 0 0 0 0 0 0 0 0 0 0 0 0 0 0 0 0 0
-0 0 0 0 0 0 0 0 0 0 0 0 0 0 0 0 0 0 0 0 0 0 0 0 0 0 0 0 0 0 0 0 0 0 0 0 0 0 0 0 0 0 0 0 0 0 0
-0 0 0 0 0 0 0 0 0 0 0 0 0 0 0 0 0 0 0 0 0 0 0 0 0 0 0 0 0 0 0 0 0 0 0 0 0 0 0 0 0 0 0 0 0 0 0
0 0 0 0 0 0 0 0 0 0 0 0 0 0 0 0 0 0 0 0 0 0 0 0 0 0 0 0 0 0 0 0 0 0 0 0 0 0 0 0 0 0 0 0 0 0 0
-0 0 0 0 0 0 0 0 0 0 0 0 0 0 0 0 0 0 0 0 0 0 0 0 0 0 0 0 0 0 0 0 0 0 0 0 0 0 0 0 0 0 0 0 -0 -0 0
-0 0 0 0 0 0 0 0 0 0 0 0 0 0 0 0 0 0 0 0 0 0 0 0 0 0 0 0 0 0 0 0 0 0 0 0 0 -0 0 0 0 0 0 0 0 -0 -0
0 0 0 0 0 0 0 0 0 0 0 0 0 0 0 0 0 0 0 0 0 0 0 0 0 0 0 0 0 0 0 0 0 0 0 0 0 0 0 0 0 0 0 0 0 0 -0
0 0 0 0 0 0 0 0 0 0 0 0 0 0 0 0 0 0 0 0 0 0 0 0 0 0 0 0 0 0 0 0 0 0 0 0 0 0 0 0 0 0 0 0 0 0 -0
0 0 0 0 0 0 0 0 0 0 0 0 0 0 0 0 0 0 0 0 0 0 0 0 0 0 0 0 0 0 0 0 0 0 -0 -0 0 0 0 0 0 0 0 0 0 0 -0
0 0 0 0 0 0 0 0 0 0 0 0 0 0 0 0 0 0 0 0 0 0 0 0 0 0 0 0 0 0 0 0 0 0 -0 -0 0 0 0 0 0 0 0 0 0 -0 0
0 0 0 0 0 0 0 0 0 0 0 0 0 0 0 0 0 0 0 0 0 0 0 0 0 0 0 0 0 0 0 0 0 0 0 0 -0 -0 -0 0 0 -0 0 0 0 0 0
0 0 0 0 0 0 0 0 0 0 0 0 0 0 0 0 0 0 0 0 0 0 0 0 0 0 0 0 0 0 0 0 0 0 0 0 -0 -0 -0 0 0 0 0 -0 -0 0 0
0 0 0 0 0 0 0 0 0 0 0 0 0 0 0 0 0 0 0 0 0 0 0 0 0 0 0 0 0 0 0 0 0 0 0 -0 -0 -0 0 0 -0 0 0 0 -0 0 0
0 0 0 0 0 0 0 0 0 0 0 0 0 0 0 0 0 0 0 0 0 0 0 0 0 0 0 0 0 0 0 0 0 0 0 0 0 -0 -0 0 0 0 0 0 -0 -0 0
0 0 0 0 0 0 0 0 0 0 0 0 0 0 0 0 0 0 0 0 0 0 0 0 0 0 0 0 0 0 0 0 0 0 -0 -0 0 0 0 0 0 -0 -0 0 -0 0 0
0 0 0 0 0 0 0 0 0 0 0 0 0 0 0 0 0 0 0 0 0 0 0 0 0 0 0 0 0 0 0 0 0 -0 0 0 0 0 0 0 0 0 -0 -0 0 0 0
0 0 0 0 0 0 0 0 0 0 0 0 0 0 0 0 0 0 0 0 0 0 0 0 0 0 0 0 0 -0 0 -0 0 0 0 0 0 0 0 0 0 0 0 0 0 -0 0
0 0 0 0 0 0 0 0 0 0 0 0 0 0 0 0 0 0 0 0 0 0 0 0 0 -0 -0 0 0 -0 -0 -0 0 0 0 0 0 0 0 0 -0 0 -0 -0 -0 -0 0
0 0 0 0 0 0 0 0 0 0 0 0 0 0 0 0 0 0 0 0 0 0 0 -0 -0 -0 0 0 -0 0 0 0 0 0 0 0 0 0 0 -0 -0 0 0 -0 -0 0 -0
0 0 0 0 0 0 0 0 0 0 0 0 0 0 0 0 0 0 0 0 0 0 -0 -0 -0 -0 0 0 0 0 0 0 0 0 0 0 0 0 0 0 -0 0 0 0 0 -0 -0
0 0 0 0 0 0 0 0 0 0 0 0 0 0 0 0 0 0 0 0 0 0 0 0 0 0 0 0 0 0 0 0 0 0 0 0 0 0 0 0 0 0 0 -0 -0 0 0
0 0 0 0 0 0 0 0 0 0 0 0 0 0 0 0 0 0 0 0 0 0 0 0 0 0 0 0 0 0 0 0 0 0 0 0 0 0 0 0 0 0 -0 -0 -0 -0 0
0 0 0 0 0 0 0 0 0 0 0 0 0 0 0 0 0 0 0 0 0 0 0 0 0 0 0 0 0 0 0 0 0 0 0 0 0 0 0 0 0 0 0 0 0 0 0
0 0 0 0 0 0 0 0 0 0 0 0 0 0 0 0 0 0 0 -0 -0 -0 0 0 0 0 0 0 0 0 0 0 0 0 0 0 0 0 0 0 0 0 0 0 0 0 0
Wind_Speed_500mb
67 68 69 70 70 71 70 69 68 68 70 69 64 55 51 33 31 33 33 37 36 30 36 36 30 32 29 15 15 14 17 28 30 30 24 23 26 17 8 8 19 15 6 16 56 62 51
70 72 75 76 75 75 74 74 72 72 70 72 68 55 51 33 32 36 38 40 29 17 21 29 29 27 19 9 30 25 21 17 26 22 7 13 17 33 15 11 12 8 10 31 50 30 13
69 74 77 81 81 80 80 79 78 76 74 74 71 55 50 36 32 38 38 30 18 15 23 29 26 22 10 22 53 43 35 33 27 14 11 16 13 27 9 10 28 37 32 31 17 8 14
68 73 78 81 84 86 85 86 84 81 78 75 73 57 46 36 32 37 36 30 17 15 24 35 22 27 8 42 47 40 31 28 26 28 25 15 13 16 28 41 22 17 8 8 8 23 15
68 72 76 80 83 86 87 89 89 85 82 77 72 66 46 34 32 34 36 34 28 17 26 30 19 20 2 44 54 31 39 36 25 30 20 14 13 20 12 5 10 7 10 8 12 12 12
67 71 74 79 83 87 89 89 90 87 84 81 75 68 56 38 31 32 38 35 31 12 29 15 15 13 13 46 50 22 39 42 28 27 14 11 16 9 6 13 22 7 9 8 6 10 12
63 69 73 79 82 86 90 91 93 90 86 84 78 72 64 42 35 23 34 27 27 6 34 15 33 18 25 53 27 33 29 40 18 10 9 13 6 13 32 31 26 22 31 24 14 18 12
61 67 71 77 82 85 90 92 94 94 87 85 80 72 68 45 35 13 20 19 17 18 22 34 22 24 21 52 15 29 29 23 16 13 8 6 23 22 8 15 20 22 22 25 12 21 10
62 64 68 76 83 87 91 91 96 96 91 82 80 78 70 41 26 11 16 27 37 21 9 23 15 15 17 45 22 18 35 31 12 13 13 22 19 11 13 14 21 17 17 11 18 15 22
66 65 70 76 83 86 93 92 97 95 88 81 80 80 67 27 9 20 15 36 49 13 7 11 5 4 28 48 9 58 26 37 7 12 12 13 10 16 21 20 19 27 18 21 13 4 10
66 72 78 80 83 89 93 93 98 97 87 83 80 76 50 18 13 21 31 46 25 9 7 9 4 8 60 14 46 11 44 13 21 13 5 12 10 13 13 17 16 19 16 16 13 10 6
67 72 76 82 85 89 90 94 97 97 87 83 78 68 29 13 22 28 36 46 9 10 10 11 10 24 26 35 14 31 27 18 14 7 9 22 17 10 18 14 22 11 5 7 4 7 13
65 70 76 83 86 87 89 92 94 95 89 83 74 53 18 13 28 33 39 21 8 7 10 10 11 17 25 16 28 16 19 7 6 9 10 13 6 7 10 7 2 5 10 2 6 9 15
63 69 76 82 86 87 91 92 89 90 90 82 73 27 15 25 28 38 26 8 4 4 4 13 14 33 13 18 6 15 13 6 4 3 5 5 13 7 3 5 13 11 15 10 11 8 8
60 68 75 83 85 89 94 93 82 84 89 83 75 14 9 25 37 33 4 7 7 0 6 12 24 7 8 17 9 13 9 5 4 1 3 7 10 17 39 26 8 4 11 14 4 5 4
61 67 72 78 85 85 88 93 77 79 87 83 76 25 10 39 29 14 9 6 5 5 12 10 7 6 10 25 13 9 7 6 6 10 10 6 17 11 10 10 12 28 9 6 7 6 12
60 68 72 78 80 82 80 90 74 76 82 79 61 14 19 40 19 18 6 8 10 20 23 8 9 12 10 12 11 6 12 13 4 4 2 11 12 10 10 6 7 5 7 6 4 8 10
61 67 72 77 79 77 76 84 72 69 78 72 37 7 31 33 15 9 4 13 21 12 29 11 8 7 6 8 12 11 13 10 19 4 12 8 9 13 19 25 11 6 9 14 9 6 8
61 66 71 73 77 71 74 81 72 60 64 64 33 14 22 18 7 6 12 8 9 11 17 9 10 7 10 8 13 18 16 13 21 14 7 5 6 11 18 6 7 6 6 10 6 4 11
62 64 70 75 74 68 68 73 70 56 54 46 19 9 12 18 11 1 12 6 14 23 24 23 20 23 11 18 18 14 21 16 14 22 36 28 11 14 19 17 3 20 24 17 15 9 6
60 65 70 72 71 67 63 68 66 53 47 29 18 5 7 9 7 12 9 8 21 20 8 21 10 14 17 15 38 11 12 16 23 51 16 7 11 15 28 35 37 43 47 40 38 34 25
56 65 67 71 66 62 61 64 59 48 44 16 13 13 13 16 23 12 6 5 21 19 10 20 14 32 37 26 36 52 31 37 13 8 2 4 8 7 29 35 36 38 44 46 49 50 40
55 65 69 69 61 61 59 58 49 44 40 16 17 10 8 11 10 6 6 14 26 30 24 19 26 38 42 35 48 76 78 57 29 10 4 5 6 5 14 10 23 22 26 38 38 30 28
59 61 68 64 58 60 54 49 39 40 27 24 19 12 7 9 5 7 19 37 22 33 32 64 54 30 27 79 87 41 18 16 16 14 21 8 5 5 11 14 6 3 26 34 31 24 33
62 64 66 58 54 56 49 41 32 33 16 17 19 10 7 9 12 28 15 26 35 38 34 43 63 38 65 48 10 12 8 2 4 7 5 13 2 7 6 4 16 3 25 20 14 20 11
59 63 63 52 51 54 44 34 28 29 15 13 16 6 9 12 7 16 29 27 16 13 14 14 39 52 17 5 5 7 6 9 9 19 6 2 1 4 5 7 8 18 50 71 41 9 21
59 60 57 46 49 48 38 28 27 23 11 13 18 9 11 17 20 13 11 12 17 11 9 21 23 22 13 5 4 4 5 11 10 13 13 9 5 5 7 8 11 41 63 73 6 15 19
58 62 51 43 47 43 36 25 27 22 14 14 20 11 16 15 45 37 18 24 29 19 6 22 22 2 7 7 5 6 4 6 7 7 12 8 12 6 7 7 13 57 45 16 9 28 31
58 61 43 44 46 41 32 25 28 26 14 13 20 14 21 30 50 69 52 36 45 40 36 11 11 14 9 5 4 5 5 6 10 7 5 4 5 7 5 5 21 45 35 19 25 35 47
Wind_Direction_500mb
34 31 28 26 23 21 19 15 11 11 9 5 2 2 1 4 5 359 354 348 339 329 329 344 357 357 18 21 30 12 353 348 339 331 289 289 238 217 216 234 229 245 299 275 239 249 257
33 30 27 25 22 19 18 15 11 9 8 6 2 0 0 359 357 358 352 344 348 357 356 350 345 345 13 3 4 5 340 346 359 338 253 276 233 242 294 240 199 253 237 260 267 258 242
30 26 25 24 22 20 16 14 11 8 7 5 3 360 359 357 352 355 353 351 356 350 353 347 345 339 0 4 2 354 344 345 346 347 312 317 255 232 339 261 300 272 276 283 244 258 243
27 23 23 22 20 18 16 14 11 7 4 4 2 359 359 354 352 354 352 350 338 342 347 339 335 340 274 2 352 358 354 350 334 323 299 276 253 226 241 277 309 332 257 219 236 189 226
25 22 20 19 16 15 13 11 10 7 3 0 359 357 352 349 341 344 344 336 334 308 332 333 328 336 313 352 351 14 12 355 335 321 306 271 212 203 185 195 326 258 270 261 296 199 190
19 18 17 15 12 10 9 7 6 4 2 358 355 352 348 343 337 343 345 343 338 312 335 330 336 340 328 335 341 359 2 354 339 316 302 214 221 177 181 186 242 235 268 322 268 9 11
15 14 12 11 10 8 6 4 2 360 358 355 353 348 346 337 338 345 355 9 9 339 326 281 296 272 318 342 355 2 348 343 343 277 218 239 205 218 220 205 225 249 269 274 281 289 325
10 10 9 9 6 5 3 1 1 357 356 353 351 346 341 339 334 352 4 35 13 308 301 291 282 273 333 347 300 9 349 358 311 257 247 261 231 232 251 189 214 204 236 267 256 260 240
4 4 5 6 4 1 358 356 355 354 354 353 351 345 342 341 335 330 345 354 339 319 272 288 262 272 326 342 307 302 334 340 268 266 262 228 236 210 218 212 219 209 210 218 247 251 275
3 4 7 5 2 358 357 354 353 354 353 353 351 347 345 347 6 348 1 337 327 284 38 275 275 258 339 335 300 322 312 331 315 282 285 249 257 224 223 237 214 240 198 223 193 163 251
0 5 4 359 357 352 354 355 352 354 353 352 350 347 349 11 12 1 340 338 334 153 337 332 279 336 336 327 311 332 328 303 263 265 278 256 291 291 219 225 196 227 187 193 202 180 157
359 1 357 354 352 350 350 352 352 353 352 352 351 347 350 17 16 345 337 337 146 47 255 332 346 333 333 330 301 295 316 301 288 270 222 252 259 249 241 235 211 226 192 32 55 142 232
358 355 352 351 350 348 348 349 350 352 352 350 350 350 7 354 341 327 331 335 30 137 344 341 324 318 314 303 320 320 321 338 341 338 0 307 255 261 209 259 308 122 128 285 241 224 241
353 349 348 348 348 346 346 348 348 352 352 347 348 349 39 8 346 335 333 51 131 10 305 328 319 307 292 1 324 309 292 312 147 353 291 324 335 6 100 243 210 207 168 168 216 201 251
346 347 346 346 347 344 344 348 346 352 354 347 346 356 330 347 332 332 8 48 232 49 314 306 312 298 270 343 331 326 292 263 276 170 8 314 260 315 301 276 259 195 210 212 246 206 13
339 342 343 344 345 343 342 348 345 349 354 349 346 355 4 343 344 342 72 248 278 294 350 323 287 285 306 325 325 332 295 262 20 74 43 293 285 262 290 306 240 215 138 133 172 204 222
335 341 340 342 341 341 341 346 346 344 353 350 351 356 349 346 354 36 103 270 302 317 346 313 277 281 297 308 274 312 271 294 72 319 305 234 232 279 349 260 220 168 224 193 171 174 198
332 340 339 338 338 341 341 348 349 346 349 352 350 347 343 357 45 28 16 316 313 305 347 285 312 272 280 295 276 292 245 209 205 189 290 263 273 276 243 246 237 263 279 196 239 224 225
331 338 337 337 336 341 339 347 349 351 351 348 341 304 350 14 65 343 295 282 276 327 332 328 304 259 298 302 315 270 259 281 283 298 246 183 252 300 321 344 94 198 224 209 231 270 208
328 336 335 334 334 337 338 342 347 353 352 350 350 350 345 52 114 177 330 312 332 319 296 347 285 280 281 301 288 276 271 291 281 235 242 243 214 210 252 237 204 275 269 261 233 221 264
329 334 333 333 334 337 337 340 346 355 356 1 11 26 0 318 341 326 289 324 330 341 295 314 296 249 313 299 303 254 261 275 286 279 271 201 273 241 253 265 263 260 267 262 245 242 238
329 329 330 331 331 335 335 337 345 353 360 9 12 1 344 297 293 313 312 266 332 326 300 304 269 300 307 289 280 290 301 302 271 290 294 277 266 289 274 259 264 259 260 256 249 248 254
324 324 326 326 329 333 332 335 342 350 2 31 10 339 312 274 303 339 275 343 321 325 298 250 300 304 303 291 306 297 288 281 252 270 234 248 258 277 269 268 285 264 263 244 253 245 234
321 321 323 323 327 329 327 330 338 347 11 18 358 350 317 284 278 274 302 303 300 298 280 290 293 286 274 307 309 301 260 240 251 232 219 256 250 254 292 336 313 302 13 359 342 256 236
315 318 322 320 322 327 325 326 331 339 10 5 339 339 307 285 266 296 312 305 296 296 282 273 286 292 307 309 322 331 352 210 274 54 194 264 227 286 287 252 278 256 2 340 343 294 352
315 314 314 314 320 325 321 321 325 335 351 345 324 309 291 305 255 299 307 293 301 319 299 268 307 325 329 297 329 337 331 321 326 327 142 1 82 251 323 301 278 17 340 327 312 226 0
310 309 307 310 317 318 316 314 319 328 339 321 304 271 283 276 278 293 288 305 292 293 272 298 329 330 340 326 301 328 313 333 330 314 337 313 359 279 290 274 292 4 333 315 319 355 3
303 304 299 305 310 314 310 308 316 317 309 313 312 272 281 270 285 274 274 263 280 259 264 309 333 22 312 340 343 337 319 333 292 309 335 324 332 338 320 319 322 347 332 14 314 7 26
298 296 297 301 308 307 304 302 310 310 289 292 295 307 297 273 276 299 285 276 264 284 270 286 255 306 280 338 345 316 331 321 305 315 347 326 8 309 299 311 306 321 351 30 17 45 43
Wind_Speed_850mb
67 68 69 70 70 71 70 69 68 68 70 69 64 55 51 33 31 33 33 37 36 30 36 36 30 32 29 15 15 14 17 28 30 30 24 23 26 17 8 8 19 15 6 16 56 62 51
70 72 75 76 75 75 74 74 72 72 70 72 68 55 51 33 32 36 38 40 29 17 21 29 29 27 19 9 30 25 21 17 26 22 7 13 17 33 15 11 12 8 10 31 50 30 13
69 74 77 81 81 80 80 79 78 76 74 74 71 55 50 36 32 38 38 30 18 15 23 29 26 22 10 22 53 43 35 33 27 14 11 16 13 27 9 10 28 37 32 31 17 8 14
68 73 78 81 84 86 85 86 84 81 78 75 73 57 46 36 32 37 36 30 17 15 24 35 22 27 8 42 47 40 31 28 26 28 25 15 13 16 28 41 22 17 8 8 8 23 15
68 72 76 80 83 86 87 89 89 85 82 77 72 66 46 34 32 34 36 34 28 17 26 30 19 20 2 44 54 31 39 36 25 30 20 14 13 20 12 5 10 7 10 8 12 12 12
67 71 74 79 83 87 89 89 90 87 84 81 75 68 56 38 31 32 38 35 31 12 29 15 15 13 13 46 50 22 39 42 28 27 14 11 16 9 6 13 22 7 9 8 6 10 12
63 69 73 79 82 86 90 91 93 90 86 84 78 72 64 42 35 23 34 27 27 6 34 15 33 18 25 53 27 33 29 40 18 10 9 13 6 13 32 31 26 22 31 24 14 18 12
61 67 71 77 82 85 90 92 94 94 87 85 80 72 68 45 35 13 20 19 17 18 22 34 22 24 21 52 15 29 29 23 16 13 8 6 23 22 8 15 20 22 22 25 12 21 10
62 64 68 76 83 87 91 91 96 96 91 82 80 78 70 41 26 11 16 27 37 21 9 23 15 15 17 45 22 18 35 31 12 13 13 22 19 11 13 14 21 17 17 11 18 15 22
66 65 70 76 83 86 93 92 97 95 88 81 80 80 67 27 9 20 15 36 49 13 7 11 5 4 28 48 9 58 26 37 7 12 12 13 10 16 21 20 19 27 18 21 13 4 10
66 72 78 80 83 89 93 93 98 97 87 83 80 76 50 18 13 21 31 46 25 9 7 9 4 8 60 14 46 11 44 13 21 13 5 12 10 13 13 17 16 19 16 16 13 10 6
67 72 76 82 85 89 90 94 97 97 87 83 78 68 29 13 22 28 36 46 9 10 10 11 10 24 26 35 14 31 27 18 14 7 9 22 17 10 18 14 22 11 5 7 4 7 13
65 70 76 83 86 87 89 92 94 95 89 83 74 53 18 13 28 33 39 21 8 7 10 10 11 17 25 16 28 16 19 7 6 9 10 13 6 7 10 7 2 5 10 2 6 9 15
63 69 76 82 86 87 91 92 89 90 90 82 73 27 15 25 28 38 26 8 4 4 4 13 14 33 13 18 6 15 13 6 4 3 5 5 13 7 3 5 13 11 15 10 11 8 8
60 68 75 83 85 89 94 93 82 84 89 83 75 14 9 25 37 33 4 7 7 0 6 12 24 7 8 17 9 13 9 5 4 1 3 7 10 17 39 26 8 4 11 14 4 5 4
61 67 72 78 85 85 88 93 77 79 87 83 76 25 10 39 29 14 9 6 5 5 12 10 7 6 10 25 13 9 7 6 6 10 10 6 17 11 10 10 12 28 9 6 7 6 12
60 68 72 78 80 82 80 90 74 76 82 79 61 14 19 40 19 18 6 8 10 20 23 8 9 12 10 12 11 6 12 13 4 4 2 11 12 10 10 6 7 5 7 6 4 8 10
61 67 72 77 79 77 76 84 72 69 78 72 37 7 31 33 15 9 4 13 21 12 29 11 8 7 6 8 12 11 13 10 19 4 12 8 9 13 19 25 11 6 9 14 9 6 8
61 66 71 73 77 71 74 81 72 60 64 64 33 14 22 18 7 6 12 8 9 11 17 9 10 7 10 8 13 18 16 13 21 14 7 5 6 11 18 6 7 6 6 10 6 4 11
62 64 70 75 74 68 68 73 70 56 54 46 19 9 12 18 11 1 12 6 14 23 24 23 20 23 11 18 18 14 21 16 14 22 36 28 11 14 19 17 3 20 24 17 15 9 6
60 65 70 72 71 67 63 68 66 53 47 29 18 5 7 9 7 12 9 8 21 20 8 21 10 14 17 15 38 11 12 16 23 51 16 7 11 15 28 35 37 43 47 40 38 34 25
56 65 67 71 66 62 61 64 59 48 44 16 13 13 13 16 23 12 6 5 21 19 10 20 14 32 37 26 36 52 31 37 13 8 2 4 8 7 29 35 36 38 44 46 49 50 40
55 65 69 69 61 61 59 58 49 44 40 16 17 10 8 11 10 6 6 14 26 30 24 19 26 38 42 35 48 76 78 57 29 10 4 5 6 5 14 10 23 22 26 38 38 30 28
59 61 68 64 58 60 54 49 39 40 27 24 19 12 7 9 5 7 19 37 22 33 32 64 54 30 27 79 87 41 18 16 16 14 21 8 5 5 11 14 6 3 26 34 31 24 33
62 64 66 58 54 56 49 41 32 33 16 17 19 10 7 9 12 28 15 26 35 38 34 43 63 38 65 48 10 12 8 2 4 7 5 13 2 7 6 4 16 3 25 20 14 20 11
59 63 63 52 51 54 44 34 28 29 15 13 16 6 9 12 7 16 29 27 16 13 14 14 39 52 17 5 5 7 6 9 9 19 6 2 1 4 5 7 8 18 50 71 41 9 21
59 60 57 46 49 48 38 28 27 23 11 13 18 9 11 17 20 13 11 12 17 11 9 21 23 22 13 5 4 4 5 11 10 13 13 9 5 5 7 8 11 41 63 73 6 15 19
58 62 51 43 47 43 36 25 27 22 14 14 20 11 16 15 45 37 18 24 29 19 6 22 22 2 7 7 5 6 4 6 7 7 12 8 12 6 7 7 13 57 45 16 9 28 31
58 61 43 44 46 41 32 25 28 26 14 13 20 14 21 30 50 69 52 36 45 40 36 11 11 14 9 5 4 5 5 6 10 7 5 4 5 7 5 5 21 45 35 19 25 35 47
Wind_Direction_850mb
34 31 28 26 23 21 19 15 11 11 9 5 2 2 1 4 5 359 354 348 339 329 329 344 357 357 18 21 30 12 353 348 339 331 289 289 238 217 216 234 229 245 299 275 239 249 257
33 30 27 25 22 19 18 15 11 9 8 6 2 0 0 359 357 358 352 344 348 357 356 350 345 345 13 3 4 5 340 346 359 338 253 276 233 242 294 240 199 253 237 260 267 258 242
30 26 25 24 22 20 16 14 11 8 7 5 3 360 359 357 352 355 353 351 356 350 353 347 345 339 0 4 2 354 344 345 346 347 312 317 255 232 339 261 300 272 276 283 244 258 243
27 23 23 22 20 18 16 14 11 7 4 4 2 359 359 354 352 354 352 350 338 342 347 339 335 340 274 2 352 358 354 350 334 323 299 276 253 226 241 277 309 332 257 219 236 189 226
25 22 20 19 16 15 13 11 10 7 3 0 359 357 352 349 341 344 344 336 334 308 332 333 328 336 313 352 351 14 12 355 335 321 306 271 212 203 185 195 326 258 270 261 296 199 190
19 18 17 15 12 10 9 7 6 4 2 358 355 352 348 343 337 343 345 343 338 312 335 330 336 340 328 335 341 359 2 354 339 316 302 214 221 177 181 186 242 235 268 322 268 9 11
15 14 12 11 10 8 6 4 2 360 358 355 353 348 346 337 338 345 355 9 9 339 326 281 296 272 318 342 355 2 348 343 343 277 218 239 205 218 220 205 225 249 269 274 281 289 325
10 10 9 9 6 5 3 1 1 357 356 353 351 346 341 339 334 352 4 35 13 308 301 291 282 273 333 347 300 9 349 358 311 257 247 261 231 232 251 189 214 204 236 267 256 260 240
4 4 5 6 4 1 358 356 355 354 354 353 351 345 342 341 335 330 345 354 339 319 272 288 262 272 326 342 307 302 334 340 268 266 262 228 236 210 218 212 219 209 210 218 247 251 275
3 4 7 5 2 358 357 354 353 354 353 353 351 347 345 347 6 348 1 337 327 284 38 275 275 258 339 335 300 322 312 331 315 282 285 249 257 224 223 237 214 240 198 223 193 163 251
0 5 4 359 357 352 354 355 352 354 353 352 350 347 349 11 12 1 340 338 334 153 337 332 279 336 336 327 311 332 328 303 263 265 278 256 291 291 219 225 196 227 187 193 202 180 157
359 1 357 354 352 350 350 352 352 353 352 352 351 347 350 17 16 345 337 337 146 47 255 332 346 333 333 330 301 295 316 301 288 270 222 252 259 249 241 235 211 226 192 32 55 142 232
358 355 352 351 350 348 348 349 350 352 352 350 350 350 7 354 341 327 331 335 30 137 344 341 324 318 314 303 320 320 321 338 341 338 0 307 255 261 209 259 308 122 128 285 241 224 241
353 349 348 348 348 346 346 348 348 352 352 347 348 349 39 8 346 335 333 51 131 10 305 328 319 307 292 1 324 309 292 312 147 353 291 324 335 6 100 243 210 207 168 168 216 201 251
346 347 346 346 347 344 344 348 346 352 354 347 346 356 330 347 332 332 8 48 232 49 314 306 312 298 270 343 331 326 292 263 276 170 8 314 260 315 301 276 259 195 210 212 246 206 13
339 342 343 344 345 343 342 348 345 349 354 349 346 355 4 343 344 342 72 248 278 294 350 323 287 285 306 325 325 332 295 262 20 74 43 293 285 262 290 306 240 215 138 133 172 204 222
335 341 340 342 341 341 341 346 346 344 353 350 351 356 349 346 354 36 103 270 302 317 346 313 277 281 297 308 274 312 271 294 72 319 305 234 232 279 349 260 220 168 224 193 171 174 198
332 340 339 338 338 341 341 348 349 346 349 352 350 347 343 357 45 28 16 316 313 305 347 285 312 272 280 295 276 292 245 209 205 189 290 263 273 276 243 246 237 263 279 196 239 224 225
331 338 337 337 336 341 339 347 349 351 351 348 341 304 350 14 65 343 295 282 276 327 332 328 304 259 298 302 315 270 259 281 283 298 246 183 252 300 321 344 94 198 224 209 231 270 208
328 336 335 334 334 337 338 342 347 353 352 350 350 350 345 52 114 177 330 312 332 319 296 347 285 280 281 301 288 276 271 291 281 235 242 243 214 210 252 237 204 275 269 261 233 221 264
329 334 333 333 334 337 337 340 346 355 356 1 11 26 0 318 341 326 289 324 330 341 295 314 296 249 313 299 303 254 261 275 286 279 271 201 273 241 253 265 263 260 267 262 245 242 238
329 329 330 331 331 335 335 337 345 353 360 9 12 1 344 297 293 313 312 266 332 326 300 304 269 300 307 289 280 290 301 302 271 290 294 277 266 289 274 259 264 259 260 256 249 248 254
324 324 326 326 329 333 332 335 342 350 2 31 10 339 312 274 303 339 275 343 321 325 298 250 300 304 303 291 306 297 288 281 252 270 234 248 258 277 269 268 285 264 263 244 253 245 234
321 321 323 323 327 329 327 330 338 347 11 18 358 350 317 284 278 274 302 303 300 298 280 290 293 286 274 307 309 301 260 240 251 232 219 256 250 254 292 336 313 302 13 359 342 256 236
315 318 322 320 322 327 325 326 331 339 10 5 339 339 307 285 266 296 312 305 296 296 282 273 286 292 307 309 322 331 352 210 274 54 194 264 227 286 287 252 278 256 2 340 343 294 352
315 314 314 314 320 325 321 321 325 335 351 345 324 309 291 305 255 299 307 293 301 319 299 268 307 325 329 297 329 337 331 321 326 327 142 1 82 251 323 301 278 17 340 327 312 226 0
310 309 307 310 317 318 316 314 319 328 339 321 304 271 283 276 278 293 288 305 292 293 272 298 329 330 340 326 301 328 313 333 330 314 337 313 359 279 290 274 292 4 333 315 319 355 3
303 304 299 305 310 314 310 308 316 317 309 313 312 272 281 270 285 274 274 263 280 259 264 309 333 22 312 340 343 337 319 333 292 309 335 324 332 338 320 319 322 347 332 14 314 7 26
298 296 297 301 308 307 304 302 310 310 289 292 295 307 297 273 276 299 285 276 264 284 270 286 255 306 280 338 345 316 331 321 305 315 347 326 8 309 299 311 306 321 351 30 17 45 43